Regional Weather Roundup
Issued by NWS

Home | Current Version | Previous Version | Graphics & Text | Print | Product List | Glossary On
Versions: 1 2 3 4 5 6 7 8 9 10 11 12 13 14 15 16 17 18 19 20 21 22 23 24 25 26 27 28 29 30 31 32 33 34 35 36 37 38 39 40 41 42 43 44 45 46 47 48 49 50
000
ASUS43 KDMX 251507
RWRIA

WEATHER ROUNDUP FOR IOWA
NATIONAL WEATHER SERVICE DES MOINES IA
1000 AM CDT SAT APR 25 2015

NOTE: "FAIR" INDICATES FEW OR NO CLOUDS BELOW 12,000 FEET WITH NO
SIGNIFICANT WEATHER AND/OR OBSTRUCTIONS TO VISIBILITY.

* - THESE STATIONS ARE NOT NWS STATIONS...THUS NOT UNDER NWS
QUALITY CONTROL.  THEY ALSO DO NOT REPORT WEATHER SUCH
AS PRECIPITATION OR FOG.

IAZ001>003-012>014-020>022-031>034-043>046-251600-
   NORTHWEST IOWA

CITY           SKY/WX    TMP DP  RH WIND       PRES   REMARKS
CARROLL *      CLOUDY    45  45 100 E22       29.63R FOG
CHEROKEE *     CLOUDY    45  43  93 NE15G24   29.69R FOG
DENISON *      CLOUDY    45  45 100 E20G29    29.61R FOG
LE MARS *      CLOUDY    46  41  81 NE22G29   29.68F
ORANGE CITY *  CLOUDY    45  39  81 NE12G22   29.70R
SHELDON *      CLOUDY    45  41  87 E17G23    29.71R
SIOUX CITY     CLOUDY    48  42  80 E15       29.66R
SPENCER        CLOUDY    44  38  79 E18       29.73R
STORM LAKE *   PTSUNNY   43  41  93 E24       29.68R FOG
$$

IAZ055>058-069>071-079>083-090>094-251600-
   SOUTHWEST IOWA

CITY           SKY/WX    TMP DP  RH WIND       PRES   REMARKS
ATLANTIC *     CLOUDY    46  46 100 NE12G24   29.59R FOG
AUDUBON *      LGT RAIN  45  43  93 NE16G22   29.62R
CLARINDA *     LGT RAIN  52  52 100 NE14G21   29.54R
COUNCIL BLFS * CLOUDY    46  46 100 NE12G21   29.58R
CRESTON *      CLOUDY    46  46 100 E17G23    29.56R FOG
HARLAN  *      CLOUDY    46  46 100 NE16      29.63R
LAMONI         CLOUDY    50  47  89 NE16      29.53R FOG
RED OAK *      LGT RAIN  50  50 100 NE14      29.56R
SHENANDOAH *   CLOUDY    52  52 100 NE15G24   29.54R
$$

IAZ047>049-059>061-072>074-084-251600-
   CENTRAL IOWA

CITY           SKY/WX    TMP DP  RH WIND       PRES   REMARKS
AMES           CLOUDY    44  40  85 E18G28    29.64F
ANKENY *       CLOUDY    45  45 100 NE13G18   29.63R FOG
CHARITON *     CLOUDY    45  45 100 NE15      29.57S
DES MOINES     LGT RAIN  46  42  86 E13       29.62R
GRINNELL*      LGT RAIN  43  41  93 NE22G29   29.62F
KNOXVILLE *    CLOUDY    45  43  93 E15G21    29.59R
MARSHALLTOWN   LGT RAIN  44  40  85 E24       29.66S
PELLA *        CLOUDY    45  45 100 E9G18     29.62R
PERRY *        CLOUDY    45  45 100 E18G25    29.63R FOG
$$

IAZ004>006-015-016-023>025-035-036-251600-
   NORTH CENTRAL IOWA

CITY           SKY/WX    TMP DP  RH WIND       PRES   REMARKS
ALGONA *       CLOUDY    45  39  81 E15G21    29.74R
CLARION *      CLOUDY    43  41  93 E21       29.71S
ESTHERVILLE    CLOUDY    43  38  82 E17       29.74S
FORT DODGE *   CLOUDY    43  37  81 E18G26    29.70R
MASON CITY     CLOUDY    44  39  82 E16       29.76R
FOREST CITY *  CLOUDY    43  37  81 E12G21    29.75R
IOWA FALLS *   CLOUDY    45  39  81 E15G21    29.71R
$$

IAZ007>011-017>019-026>030-037>042-050>054-066-251600-
   NORTHEAST IOWA

CITY           SKY/WX    TMP DP  RH WIND       PRES   REMARKS
CEDAR RAPIDS   RAIN      42  42 100 E12       29.70R FOG
CHARLES CITY * PTSUNNY   45  39  81 E21G28    29.75S
CLINTON *      CLOUDY    45  39  81 E18G25    29.72S
DECORAH *      CLOUDY    45  37  76 E15       29.77S
DUBUQUE        CLOUDY    43  37  79 E15       29.74S
MONTICELLO *   PTSUNNY   45  43  93 E15       29.70S
OELWEIN *      CLOUDY    43  37  81 E17G25    29.72S
WATERLOO       CLOUDY    44  38  79 E18       29.71R
$$

IAZ064-065-067-068-078-251600-
   EAST CENTRAL IOWA

CITY           SKY/WX    TMP DP  RH WIND       PRES   REMARKS
DAVENPORT      LGT RAIN  44  41  89 E21G29    29.68R FOG
IOWA CITY      RAIN      44  42  93 E14G21    29.70R FOG
MT. PLEASANT * LGT RAIN  46  46 100 NE20G25   29.56F
MUSCATINE *    LGT RAIN  46  43  87 NE14G22   29.66F
QUAD CITIES    CLOUDY    45  42  89 E14       29.68R FOG
$$

IAZ062-063-075>077-085>089-095>099-251600-
   SOUTHEAST IOWA

CITY           SKY/WX    TMP DP  RH WIND       PRES   REMARKS
BURLINGTON     LGT RAIN  47  32  56 E18G28    29.57F
FAIRFIELD *    CLOUDY    45  43  93 NE24G33   29.54F FOG
FORT MADISON * LGT RAIN  46  46 100 E22G28    29.53F
KEOKUK *       CLOUDY    48  48 100 SE14      29.56R FOG
OSKALOOSA *    LGT RAIN  43  43 100 NE17      29.58R
CENTERVILLE *  CLOUDY    46  46 100 NE16G22   29.56S
OTTUMWA        CLOUDY    45  43  93 E14G21    29.59R
WASHINGTON *   LGT RAIN  45  45 100 NE23G29   29.60F
$$

ABBREVIATIONS USED IN REMARKS
   TC - TEMPERATURES IN CELSIUS
  WCI - WIND CHILL INDEX
   HX - HEAT INDEX
  VSB - VISIBILITY
$$




USA.gov is the U.S. government's official web portal to all federal, state and local government web resources and services.